Weather History for KRMG - September, 2012

Change the Weather History Date:

Saturday, September 22, 2012

  Actual Average Record
Temperature  
Mean Temperature 70 °F 70 °F  
Max Temperature 84 °F 82 °F - ()
Min Temperature 57 °F 58 °F - ()
Degree Days  
Heating Degree Days 0 1  
Month to date heating degree days 3  
Since 1 July heating degree days 3  
Cooling Degree Days 6 6  
Month to date cooling degree days 188  
Year to date cooling degree days 1554  
Growing Degree Days 20 (Base 50)    
Moisture  
Dew Point 60 °F    
Average Humidity 78    
Maximum Humidity 100    
Minimum Humidity 44    
Precipitation  
Precipitation 0.00 in 0.12 in - ()
Month to date precipitation 2.33  
Year to date precipitation 37.75  
Sea Level Pressure  
Sea Level Pressure 30.01 in    
Wind  
Wind Speed 2 mph (West)    
Max Wind Speed 13 mph    
Max Gust Speed 16 mph    
Visibility 8 miles    
Events      
T = Trace of Precipitation, MM = Missing Value Source: NWS Daily Summary

Daily Weather History Graph

Daily Weather History Graph

Search for Another Location

Airport or City:

Trip Planner

Search our weather history database for the weather conditions in past years. The results will help you decide how hot, cold, wet, or windy it might be!

Date:

Astronomy

Sep. 22, 2012 Rise Set
Actual Time 7:29 AM EDT 7:36 PM EDT
Civil Twilight 7:03 AM EDT 8:01 PM EDT
Nautical Twilight 6:34 AM EDT 8:30 PM EDT
Astronomical Twilight 6:05 AM EDT 9:00 PM EDT
Moon 2:31 PM EDT (9/22) No Moon Set
Length of Visible Light 12h 57m
Length of Day
12h 07m
Waxing Crescent, 48% of the Moon is Illuminated
Sep 22
Waxing Crescent
Sep 22
First Quarter
Sep 29
Full
Oct 8
Last Quarter
Oct 15
New

Hourly Weather History & Observations

Time (EDT) Temp. Heat Index Dew Point Humidity Pressure Visibility Wind Dir Wind Speed Gust Speed Precip Events Conditions
12:53 AM 61.0 °F - 60.1 °F 97% 29.99 in 8.0 mi Calm Calm - N/A   Clear
1:53 AM 60.1 °F - 60.1 °F 100% 29.99 in 5.0 mi Calm Calm - N/A   Clear
2:53 AM 60.1 °F - 60.1 °F 100% 29.99 in 6.0 mi Calm Calm - N/A   Mostly Cloudy
3:53 AM 59.0 °F - 59.0 °F 100% 30.00 in 5.0 mi Calm Calm - N/A   Clear
4:53 AM 60.1 °F - 60.1 °F 100% 30.00 in 5.0 mi Calm Calm - N/A   Overcast
5:53 AM 60.1 °F - 60.1 °F 100% 30.01 in 5.0 mi Calm Calm - N/A   Mostly Cloudy
6:53 AM 57.9 °F - 57.9 °F 100% 30.02 in 5.0 mi Calm Calm - N/A   Partly Cloudy
7:44 AM 57.2 °F - 57.2 °F 100% 30.05 in 2.5 mi Calm Calm - N/A   Clear
7:53 AM 59.0 °F - 57.9 °F 96% 30.03 in 4.0 mi Calm Calm - N/A   Clear
8:06 AM 59.0 °F - 59.0 °F 100% 30.05 in 2.5 mi Calm Calm - N/A   Clear
8:26 AM 60.8 °F - 60.8 °F 100% 30.05 in 4.0 mi Calm Calm - N/A   Clear
8:53 AM 63.0 °F - 62.1 °F 97% 30.03 in 8.0 mi SSW 3.5 mph - N/A   Clear
9:53 AM 69.1 °F - 64.0 °F 84% 30.03 in 10.0 mi Calm Calm - N/A   Clear
10:53 AM 75.0 °F - 64.9 °F 71% 30.02 in 10.0 mi SSW 5.8 mph - N/A   Clear
11:53 AM 80.1 °F 81.5 °F 63.0 °F 56% 30.02 in 10.0 mi West 12.7 mph - N/A   Clear
12:53 PM 81.0 °F 82.5 °F 64.0 °F 56% 30.00 in 10.0 mi West 5.8 mph - N/A   Clear
1:53 PM 84.0 °F 85.8 °F 64.9 °F 53% 29.99 in 10.0 mi West 8.1 mph - N/A   Clear
2:53 PM 82.0 °F 83.4 °F 64.0 °F 54% 29.97 in 10.0 mi WSW 9.2 mph - N/A   Mostly Cloudy
3:53 PM 82.9 °F 84.4 °F 64.0 °F 53% 29.96 in 10.0 mi WSW 8.1 mph - N/A   Scattered Clouds
4:53 PM 84.0 °F 85.4 °F 64.0 °F 51% 29.96 in 10.0 mi West 8.1 mph - N/A   Mostly Cloudy
5:53 PM 82.9 °F 82.8 °F 59.0 °F 44% 29.96 in 10.0 mi WNW 12.7 mph 16.1 mph N/A   Clear
6:53 PM 81.0 °F 81.3 °F 59.0 °F 47% 29.98 in 10.0 mi WNW 3.5 mph - N/A   Partly Cloudy
7:53 PM 75.0 °F - 57.9 °F 55% 30.00 in 10.0 mi NW 5.8 mph - N/A   Clear
8:53 PM 72.0 °F - 57.0 °F 59% 30.03 in 10.0 mi NNW 6.9 mph - N/A   Clear
9:53 PM 69.1 °F - 54.0 °F 58% 30.05 in 10.0 mi NNW 5.8 mph - N/A   Clear
10:53 PM 66.0 °F - 53.1 °F 63% 30.06 in 10.0 mi NW 6.9 mph - N/A   Clear
11:53 PM 61.0 °F - 53.1 °F 75% 30.07 in 10.0 mi NW 4.6 mph - N/A   Clear